Lewiston, WA

5:04 PM PDT on August 16, 2017 (GMT -0700)
Lewiston-Nez Perce County

Weather History for KLWS - May, 2014

Change the Weather History Date:

Saturday, May 10, 2014

  Actual Average Record
Temperature  
Mean Temperature 55 °F 58 °F  
Max Temperature 63 °F 70 °F 95 °F (1924)
Min Temperature 46 °F 46 °F 30 °F (1895)
Degree Days  
Heating Degree Days 10 8  
Month to date heating degree days 65 95  
Since 1 July heating degree days 5226 4975  
Cooling Degree Days 0 1  
Month to date cooling degree days 4 7  
Year to date cooling degree days 4 9  
Growing Degree Days 4 (Base 50)    
Moisture  
Dew Point 31 °F    
Average Humidity 48    
Maximum Humidity 71    
Minimum Humidity 25    
Precipitation  
Precipitation T in 0.06 in 0.60 in (1976)
Month to date precipitation 0.31 0.49  
Year to date precipitation 5.08 4.82  
Snow  
Snow 0.00 in 0.00 in 0.30 in (1916)
Month to date snowfall 0.0 0.0  
Since 1 July snowfall 16.5 10.5  
Snow Depth 0.00 in    
Sea Level Pressure  
Sea Level Pressure 30.03 in    
Wind  
Wind Speed 6 mph (WSW)    
Max Wind Speed 16 mph    
Max Gust Speed 21 mph    
Visibility 10 miles    
Events Rain    
T = Trace of Precipitation, MM = Missing Value Source: NWS Daily Summary

Daily Weather History Graph

Daily Weather History Graph

Search for Another Location

Airport or City:

Trip Planner

Search our weather history database for the weather conditions in past years. The results will help you decide how hot, cold, wet, or windy it might be!

Date:

Astronomy

May. 10, 2014 Rise Set
Actual Time 5:20 AM PDT 8:08 PM PDT
Civil Twilight 4:46 AM PDT 8:43 PM PDT
Nautical Twilight 4:02 AM PDT 9:27 PM PDT
Astronomical Twilight 3:10 AM PDT 10:20 PM PDT
Moon 3:55 PM PDT (5/10) 3:12 AM PDT (5/10)
Length of Visible Light 15h 57m
Length of Day
14h 47m
Waxing Gibbous, 83% of the Moon is Illuminated
May 10
Waxing Gibbous
May 14
Full
May 21
Last Quarter
May 28
New
Jun 5
First Quarter

Hourly Weather History & Observations

Time (PDT) Temp. Dew Point Humidity Pressure Visibility Wind Dir Wind Speed Gust Speed Precip Events Conditions
12:56 AM 50.0 °F 34.0 °F 54% 29.95 in 10.0 mi South 9.2 mph - N/A   Overcast
1:56 AM 50.0 °F 34.0 °F 54% 29.94 in 10.0 mi SSW 6.9 mph - N/A   Overcast
2:56 AM 48.0 °F 37.9 °F 68% 29.95 in 10.0 mi SW 3.5 mph - 0.00 in Rain Light Rain
3:56 AM 46.9 °F 37.9 °F 71% 29.96 in 10.0 mi SE 5.8 mph - 0.00 in   Overcast
4:56 AM 46.9 °F 37.0 °F 68% 29.97 in 10.0 mi SW 4.6 mph - N/A   Overcast
5:56 AM 46.9 °F 37.0 °F 68% 29.98 in 10.0 mi Calm Calm - N/A   Overcast
6:56 AM 48.9 °F 36.0 °F 61% 29.99 in 10.0 mi Calm Calm - N/A   Partly Cloudy
7:56 AM 48.9 °F 36.0 °F 61% 30.01 in 10.0 mi SE 3.5 mph - N/A   Overcast
8:56 AM 51.1 °F 35.1 °F 54% 30.01 in 10.0 mi East 3.5 mph - N/A   Clear
9:56 AM 54.0 °F 32.0 °F 43% 30.01 in 10.0 mi NE 4.6 mph - N/A   Clear
10:56 AM 55.0 °F 30.0 °F 38% 30.02 in 10.0 mi North - - N/A   Mostly Cloudy
11:56 AM 54.0 °F 28.9 °F 38% 30.03 in 10.0 mi NNE 5.8 mph - N/A   Overcast
12:56 PM 59.0 °F 28.0 °F 31% 30.02 in 10.0 mi Variable 3.5 mph - N/A   Mostly Cloudy
1:56 PM 60.1 °F 27.0 °F 28% 30.02 in 10.0 mi WNW 8.1 mph - N/A   Overcast
2:56 PM 59.0 °F 25.0 °F 27% 30.02 in 10.0 mi WNW 8.1 mph - N/A   Mostly Cloudy
3:56 PM 61.0 °F 27.0 °F 27% 30.03 in 10.0 mi NW 15.0 mph 20.7 mph N/A   Overcast
4:56 PM 62.1 °F 26.1 °F 25% 30.03 in 10.0 mi West 13.8 mph - N/A   Clear
5:56 PM 60.1 °F 28.0 °F 30% 30.05 in 10.0 mi WNW 9.2 mph - N/A   Clear
6:56 PM 60.1 °F 27.0 °F 28% 30.05 in 10.0 mi NW 10.4 mph - N/A   Clear
7:56 PM 57.0 °F 28.0 °F 33% 30.08 in 10.0 mi West 6.9 mph - N/A   Mostly Cloudy
8:56 PM 55.9 °F 28.9 °F 36% 30.10 in 10.0 mi WSW 3.5 mph - N/A   Clear
9:56 PM 51.1 °F 30.9 °F 46% 30.12 in 10.0 mi WSW 5.8 mph - N/A   Clear
10:56 PM 46.9 °F 32.0 °F 56% 30.12 in 10.0 mi South 6.9 mph - N/A   Clear
11:56 PM 48.9 °F 30.9 °F 50% 30.14 in 10.0 mi South 5.8 mph - N/A   Mostly Cloudy